星链-3673 (STARLINK-3673 )

导读

STARLINK-3673是美国SpaceX公司星链(Starlink)星座中的一颗卫星,于2022年3月19日发射入轨。星链星座旨在构建全球低轨卫星互联网,为全球偏远、基础设施匮乏地区提供高速低延迟宽带服务。STARLINK-3673作为组网卫星,运行于近地轨道,助力星座覆盖范围与服务能力拓展,推动全球互联接入实现。

基本信息
目录编号:
52093
目录名称:
STARLINK-3673
国际标识:
2022-029F
轨道中心:
EARTH
卫星名称:
星链-3673
卫星全名:
星链-3673 (STARLINK-3673 )
卫星状态:
在轨 (已飞行1551 天)
发射日期:
2022-03-19 UTC
国别 :
美国 (US)
星等 :
--
轨道信息
数据来源 国际轨道数据
星历时间: 2026-06-17T20:00:03+0800
5小时前
查看轨道信息
半长轴: 6890.127km
偏心率: 0.0001871
轨道倾角: 53.161°
近地点辐角 69.071°
升交点赤经 0.764°
平近点角 44.515°
近地点: 510.7km
远地点: 513.28km
周期: 94.864分钟
每日圈数: 15.179658
详细信息
固有亮度:
5
最大亮度:
2.5
卫星平台:
Starlink v1.5
覆盖范围:
全球
运营商:
太空探索技术公司
运营商所在国:
美国
制造商(研发单位):
太空探索技术公司
制造商所在国:
美国
使用方式:
暂无
卫星简介
星链(Starlink)计划是由太空探索技术公司(SpaceX)提出的一个巨型低轨卫星互联网星座项目,计划在2019年至2024年间在太空搭建由约1.2万颗卫星组成的“星链”网络,其中1584颗将部署在地球上空550千米处的近地轨道,并从2020年开始工作。该卫星仍在工作。
2D轨道图
3D轨道图
轨道高度分析图
轨道倾角分析图
轨道综合分析图
查看轨道综合分析图